Location: Newark
(51.0967°N, 24.7917°E)
Time: 19:46:01
(UTC+00:00)

STARLINK-1277 - Pass Details

Date: 01 April 2020
Orbit: 549 x 550 km, 53.0° (Epoch: 03 June)

Event Time Altitude Azimuth Distance (km) Brightness Sun altitude
Exits shadow 00:29:42 17° 99° (E) 1,429 6.0 -28.2°
Drops below altitude 10° 00:31:00 10° 85° (E) 1,807 6.7 -28.0°
Enters shadow 01:29:48 -66° 246° (WSW) 12,231 10.4 -21.7°
Maximum altitude 02:06:45 80° 158° (SSE) 556 3.5 -16.9°
